Regional Weather Roundup
Issued by NWS Charleston, SC

Home | Current Version | Previous Version | Text Only | Print | Product List | Glossary On
Versions: 1 2 3 4 5 6 7 8 9 10 11 12 13 14 15 16 17 18 19 20 21 22 23 24 25 26 27 28 29 30 31 32 33 34 35 36 37 38 39 40 41 42 43 44 45 46 47 48 49 50
466
ASUS42 KCHS 050028
RWRCHS

REGIONAL WEATHER ROUNDUP
NATIONAL WEATHER SERVICE CHARLESTON SC
800 PM EDT WED MAY 04 2016

NOTE: "FAIR" INDICATES FEW OR NO CLOUDS BELOW 12,000 FEET WITH NO
SIGNIFICANT WEATHER AND/OR OBSTRUCTIONS TO VISIBILITY.

NOT ALL STATIONS ARE QUALITY CONTROLLED. USE DATA WITH CAUTION...
ESPECIALLY DEWPOINT OBSERVATIONS.

SCZ027-030-031-034>040-042>050-050100-
...SOUTHEAST SOUTH CAROLINA...

CITY           SKY/WX    TMP DP  RH WIND       PRES   REMARKS
N CHARLESTON   PTCLDY    74  46  36 W9        29.62S
6HR MIN TEMP:  74; 6HR MAX TEMP:  82;

WATERFRONT PRK   N/A     76  48  37 W7        29.60R
MOUNT PLEASANT FAIR      73  46  38 CALM      29.63R
JOHNS ISLAND   FAIR      72  50  46 CALM      29.63S
PINOPOLIS        N/A     79  52  38 W12       29.53R
MONCKS CORNER  FAIR      66  43  42 CALM      29.63R
SUMMERVILLE    FAIR      68  48  49 W3        29.64S
BEAUFORT MCAS  PTCLDY    73  47  39 W8        29.64S
6HR MIN TEMP:  73; 6HR MAX TEMP:  80;

BEAUFORT ARPT  FAIR      73  45  35 W10       29.64R
HILTON HEAD IS PTCLDY    73  48  40 W3        29.65S
WALTERBORO     CLEAR     72  45  37 W5        29.65R
ALLENDALE      FAIR      70  48  46 CALM      29.65R

...SOUTHERN MIDLANDS AND PEE DEE...

CITY           SKY/WX    TMP DP  RH WIND       PRES   REMARKS
GEORGETOWN     MOCLDY    70  48  46 W3        29.63R
KINGSTREE      FAIR      68  46  45 W5        29.62R
ORANGEBURG     CLEAR     71  43  36 NW8       29.64S
6HR MIN TEMP:  71; 6HR MAX TEMP:  78;

BARNWELL       FAIR      70  48  46 W3        29.66S
AIKEN          FAIR      64  45  48 W3        29.69S
MANNING        FAIR      68  43  40 W3        29.63R
COLUMBIA       PTCLDY    70  43  37 W10       29.63F
6HR MIN TEMP:  70; 6HR MAX TEMP:  78;

SUMTER         CLEAR     70  44  40 W8        29.61R
6HR MIN TEMP:  70; 6HR MAX TEMP:  78;

FLORENCE       CLEAR     73  48  41 W7        29.61R
6HR MIN TEMP:  73; 6HR MAX TEMP:  78;

MYRTLE BEACH   NOT AVBL
N MYRTLE BEACH CLEAR     73  53  49 W5        29.59R
6HR MIN TEMP:  73; 6HR MAX TEMP:  81;


$$

GAZ063-065-086>088-099>101-113>116-118-119-134>141-150-050100-
...SOUTHEAST GEORGIA...

CITY           SKY/WX    TMP DP  RH WIND       PRES   REMARKS
SAVANNAH ARPT  PTCLDY    74  45  35 NW8       29.65S
6HR MIN TEMP:  74; 6HR MAX TEMP:  81;

HUNTER AAF     PTCLDY    73  50  43 W8        29.62S
6HR MIN TEMP:  73; 6HR MAX TEMP:  81;

FORT STEWART   PTCLDY    73  47  39 NW5       29.63F
6HR MIN TEMP:  73; 6HR MAX TEMP:  80;

STATESBORO     CLEAR     71  54  54 NW6       29.67R
SYLVANIA       CLEAR     70  52  52 NW6       29.67S
CLAXTON        FAIR      69  53  56 W3        29.68R

...CSRA...CENTRAL AND FAR SOUTHEAST GEORGIA...

CITY           SKY/WX    TMP DP  RH WIND       PRES   REMARKS
THOMSON        CLEAR     66  51  58 CALM      29.73R
AUGUSTA-BUSH   CLEAR     70  44  39 W12       29.66S
6HR MIN TEMP:  70; 6HR MAX TEMP:  77;

AUGUSTA-DANIEL CLEAR     71  42  35 VRB5      29.67S
SWAINSBORO     FAIR      68  48  49 NW3       29.70R
VIDALIA        CLEAR     70  46  43 NW3       29.69S
EASTMAN        FAIR      68  47  46 NW3       29.73R
HAZLEHURST     FAIR      70  47  42 CALM      29.70R
ALMA           CLEAR     72  47  40 NW8       29.69R
6HR MIN TEMP:  72; 6HR MAX TEMP:  78;

WAYCROSS       PTCLDY    69  52  54 NW6       29.68S
JESUP          FAIR      72  55  56 NW6       29.67S
BAXLEY         FAIR      70  50  49 NW5       29.69R
BRUNSWICK      PTCLDY    77  54  44 W3        29.67R
SAINT SIMONS   MOCLDY    73  64  73 CALM      29.65S
6HR MIN TEMP:  73; 6HR MAX TEMP:  81;


$$

SCZ027-028-034-036>038-045-046-048>050-GAZ119-141-050100-
...LAKE AND SUPPLEMENTAL COASTAL OBSERVATIONS...

STATION/POSITION TIME  TEMP    WIND        PRES    WAVE   SWELL
                       AIR SEA DIR/SP/G            HT/PER HT/PER/DIR
                 (UTC) (F)     (DEG/KT/KT) (MB)    (FT/S) (FT/S/D)
WINYAH BAY       2300   77     300/  6     1001.0
LAKE MURRAY      2300   71     280/  9/ 13 1003.4S
ACE BASIN NERRS  2300   76     250/  4     1003.0F
FORT PULASKI     0000   74 75              1004.0R
SAPELO ISLAND    0000   75     300/  9     1004.0S

$$

ANZ835-935-AMZ111-154-330-350-352-354-370-450-454-472-050100-
...C-MAN AND BUOY OBSERVATIONS...

STATION/POSITION TIME  TEMP    WIND        PRES    WAVE   SWELL
                       AIR SEA DIR/SP/G            HT/PER HT/PER/DIR
                 (UTC) (F)     (DEG/KT/KT) (MB)    (FT/S) (FT/S/D)
BUOY 41004       2350   74 75  230/ 17/ 21 1002.6R   4/ 4   2/ 8
BUOY 41008       NOT AVBL
FOLLY BEACH CMAN 0000   74     260/  7/ 11 1003.5R
CAPERS NEARSHORE 2308   75 72  250/ 14/ 19 1002.3R
FRIPP NEARSHORE  0008   74 71  290/ 10/ 14 1002.9R


STATION/POSITION TIME  TEMP    WIND        PRES    WAVE   SWELL
                       AIR SEA DIR/SP/G            HT/PER HT/PER/DIR
                 (UTC) (F)     (DEG/KT/KT) (MB)    (FT/S) (FT/S/D)
5E ST. MARYS GA  2321      73                N/A     2/10
FRYING PAN BUOY  0000   73 72  240/ 17/ 21 1002.0R
BUOY 41025       2350   70 71  260/  4/  4 1001.7R   3/ 8   3/170/ 8
CAPE LOOKOUT NC  0000   69     330/  5/  5 1000.9F
BUOY 41002       2350   74 74  190/ 17/ 21 1004.2F   5/ 7   2/130/10
BUOY 41010       2320   73 77  180/ 14/ 16 1006.4F
ST AUGUSTINE FL  0000   69 71  200/  4/  5 1004.6F


$$




USA.gov is the U.S. government's official web portal to all federal, state and local government web resources and services.